| time (UTC) | temp F | wind direction | speed knots | gust knots | rain 1hr in | rain 24hr in | rain mn in | humidity % | barometer mb |
| 20260505171507 | 80 | 77 | 2.6 | 11.3 | 0.00 | 0.00 | 0.00 | 35 | 1010.0 |
| 20260505171005 | 80 | 358 | 1.7 | 11.3 | 0.00 | 0.00 | 0.00 | 37 | 1009.9 |
| 20260505170504 | 80 | 124 | 3.5 | 7.8 | 0.00 | 0.00 | 0.00 | 36 | 1010.0 |
| 20260505170007 | 79 | 272 | 0.9 | 11.3 | 0.00 | 0.00 | 0.00 | 40 | 1010.1 |
| 20260505165503 | 80 | 80 | 2.6 | 11.3 | 0.00 | 0.00 | 0.00 | 36 | 1010.2 |
| 20260505165002 | 79 | 103 | 1.7 | 8.7 | 0.00 | 0.00 | 0.00 | 37 | 1010.3 |
| 20260505164502 | 79 | 181 | 1.7 | 9.6 | 0.00 | 0.00 | 0.00 | 39 | 1010.3 |
| 20260505164002 | 80 | 172 | 3.5 | 9.6 | 0.00 | 0.00 | 0.00 | 36 | 1010.4 |
| 20260505163601 | 79 | 110 | 4.3 | 9.6 | 0.00 | 0.00 | 0.00 | 37 | 1010.5 |
| 20260505163100 | 79 | 105 | 2.6 | 10.4 | 0.00 | 0.00 | 0.00 | 38 | 1010.5 |
| 20260505162559 | 79 | 160 | 4.3 | 10.4 | 0.00 | 0.00 | 0.00 | 37 | 1010.6 |
| 20260505162100 | 78 | 311 | 3.5 | 8.7 | 0.00 | 0.00 | 0.00 | 38 | 1010.6 |
| 20260505161606 | 78 | 212 | 0.9 | 9.6 | 0.00 | 0.00 | 0.00 | 38 | 1010.7 |
| 20260505161058 | 78 | 172 | 3.5 | 10.4 | 0.00 | 0.00 | 0.00 | 37 | 1010.8 |
| 20260505160558 | 78 | 184 | 2.6 | 11.3 | 0.00 | 0.00 | 0.00 | 37 | 1011.0 |
| 20260505153101 | 76 | 120 | 3.5 | 13.9 | 0.00 | 0.00 | 0.00 | 38 | 1011.4 |
| 20260505152551 | 76 | 34 | 4.3 | 8.7 | 0.00 | 0.00 | 0.00 | 39 | 1011.4 |
| 20260505152051 | 76 | 66 | 4.3 | 8.7 | 0.00 | 0.00 | 0.00 | 40 | 1011.5 |
| 20260505151558 | 76 | 60 | 3.5 | 11.3 | 0.00 | 0.00 | 0.00 | 39 | 1011.5 |
| 20260505151049 | 75 | 84 | 4.3 | 11.3 | 0.00 | 0.00 | 0.00 | 40 | 1011.5 |
| 20260505150549 | 75 | 317 | 1.7 | 6.1 | 0.00 | 0.00 | 0.00 | 42 | 1011.4 |
| 20260505140538 | 71 | 71 | 3.5 | 7.8 | 0.00 | 0.00 | 0.00 | 49 | 1011.4 |
| 20260505125029 | 69 | 62 | 0.9 | 1.7 | 0.00 | 0.00 | 0.00 | 56 | 1011.5 |
| 20260505124534 | 67 | 81 | 0.9 | 2.6 | 0.00 | 0.00 | 0.00 | 55 | 1011.5 |
| 20260505124025 | 66 | 68 | 0.9 | 5.2 | 0.00 | 0.00 | 0.00 | 56 | 1011.7 |
| 20260505123524 | 66 | 44 | 1.7 | 5.2 | 0.00 | 0.00 | 0.00 | 57 | 1011.9 |
| 20260505123029 | 66 | 81 | 1.7 | 3.5 | 0.00 | 0.00 | 0.00 | 57 | 1012.0 |
| 20260505122524 | 65 | 63 | 0.9 | 3.5 | 0.00 | 0.00 | 0.00 | 57 | 1012.0 |
| 20260505122020 | 64 | 35 | 1.7 | 3.5 | 0.00 | 0.00 | 0.00 | 59 | 1012.1 |
| 20260505121522 | 63 | 48 | 0.9 | 3.5 | 0.00 | 0.00 | 0.00 | 59 | 1012.0 |
| 20260505121017 | 62 | 82 | 1.7 | 5.2 | 0.00 | 0.00 | 0.00 | 60 | 1012.0 |
| 20260505120517 | 62 | 44 | 0.9 | 4.3 | 0.00 | 0.00 | 0.00 | 61 | 1012.0 |
| 20260505120030 | 61 | 65 | 0.9 | 6.1 | 0.00 | 0.00 | 0.00 | 62 | 1011.9 |
| 20260505115518 | 61 | 114 | 0.9 | 6.1 | 0.00 | 0.00 | 0.00 | 63 | 1012.0 |
| 20260505115018 | 60 | 91 | 2.6 | 5.2 | 0.00 | 0.00 | 0.00 | 63 | 1011.9 |
| 20260505114519 | 60 | 62 | 2.6 | 4.3 | 0.00 | 0.00 | 0.00 | 64 | 1011.8 |
| 20260505114014 | 59 | 71 | 1.7 | 7.0 | 0.00 | 0.00 | 0.00 | 66 | 1011.7 |
| 20260505113513 | 59 | 63 | 2.6 | 7.0 | 0.00 | 0.00 | 0.00 | 66 | 1011.8 |
| 20260505113013 | 58 | 98 | 1.7 | 7.0 | 0.00 | 0.00 | 0.00 | 67 | 1011.8 |
| 20260505112513 | 57 | 3 | 1.7 | 8.7 | 0.00 | 0.00 | 0.00 | 69 | 1011.8 |
| 20260505112013 | 57 | 34 | 0.9 | 8.7 | 0.00 | 0.00 | 0.00 | 70 | 1011.7 |
| 20260505111517 | 57 | 20 | 2.6 | 7.0 | 0.00 | 0.00 | 0.00 | 70 | 1011.7 |
| 20260505111011 | 57 | 24 | 1.7 | 7.8 | 0.00 | 0.00 | 0.00 | 71 | 1011.5 |
| 20260505110510 | 56 | 32 | 2.6 | 7.8 | 0.00 | 0.00 | 0.00 | 72 | 1011.4 |
| 20260505102004 | 56 | 45 | 2.6 | 6.1 | 0.00 | 0.00 | 0.00 | 73 | 1010.9 |
| 20260505101503 | 56 | 69 | 1.7 | 7.0 | 0.00 | 0.00 | 0.00 | 73 | 1010.8 |
| 20260505101003 | 56 | 37 | 3.5 | 7.0 | 0.00 | 0.00 | 0.00 | 72 | 1010.8 |
| 20260505100600 | 56 | 88 | 2.6 | 7.0 | 0.00 | 0.00 | 0.00 | 72 | 1010.8 |
| 20260505100100 | 57 | 15 | 2.6 | 7.0 | 0.00 | 0.00 | 0.00 | 72 | 1010.7 |
| 20260505095559 | 57 | 45 | 3.5 | 7.0 | 0.00 | 0.00 | 0.00 | 71 | 1010.7 |
| 20260505095101 | 57 | 37 | 3.5 | 8.7 | 0.00 | 0.00 | 0.00 | 71 | 1010.7 |
| 20260505094557 | 57 | 46 | 2.6 | 8.7 | 0.00 | 0.00 | 0.00 | 72 | 1010.7 |
| 20260505094056 | 57 | 40 | 1.7 | 7.0 | 0.00 | 0.00 | 0.00 | 71 | 1010.7 |
| 20260505093556 | 57 | 41 | 1.7 | 7.8 | 0.00 | 0.00 | 0.00 | 71 | 1010.7 |
| 20260505093100 | 57 | 352 | 3.5 | 10.4 | 0.00 | 0.00 | 0.00 | 71 | 1010.7 |
| 20260505092554 | 57 | 158 | 2.6 | 7.0 | 0.00 | 0.00 | 0.00 | 70 | 1010.6 |
| 20260505092055 | 58 | 101 | 0.9 | 8.7 | 0.00 | 0.00 | 0.00 | 69 | 1010.5 |
| 20260505091605 | 58 | 132 | 2.6 | 7.8 | 0.00 | 0.00 | 0.00 | 69 | 1010.5 |
| 20260505091057 | 58 | 184 | 2.6 | 7.8 | 0.00 | 0.00 | 0.00 | 68 | 1010.5 |
| 20260505090554 | 59 | 77 | 2.6 | 7.8 | 0.00 | 0.00 | 0.00 | 68 | 1010.5 |
| 20260505090054 | 59 | 118 | 4.3 | 7.8 | 0.00 | 0.00 | 0.00 | 67 | 1010.4 |
| 20260505085554 | 59 | 150 | 2.6 | 7.8 | 0.00 | 0.00 | 0.00 | 67 | 1010.4 |
| 20260505085053 | 59 | 115 | 3.5 | 10.4 | 0.00 | 0.00 | 0.00 | 67 | 1010.4 |
| 20260505084555 | 59 | 103 | 3.5 | 10.4 | 0.00 | 0.00 | 0.00 | 67 | 1010.4 |
| 20260505084053 | 59 | 174 | 1.7 | 8.7 | 0.00 | 0.00 | 0.00 | 67 | 1010.4 |
| 20260505083554 | 59 | 153 | 2.6 | 8.7 | 0.00 | 0.00 | 0.00 | 67 | 1010.5 |
| 20260505083058 | 59 | 141 | 3.5 | 8.7 | 0.00 | 0.00 | 0.00 | 67 | 1010.5 |
| 20260505082551 | 59 | 153 | 2.6 | 8.7 | 0.00 | 0.00 | 0.00 | 67 | 1010.4 |
| 20260505082052 | 59 | 167 | 1.7 | 7.0 | 0.00 | 0.00 | 0.00 | 68 | 1010.4 |
| 20260505081555 | 59 | 176 | 2.6 | 7.0 | 0.00 | 0.00 | 0.00 | 67 | 1010.5 |
| 20260505081055 | 60 | 135 | 2.6 | 8.7 | 0.00 | 0.00 | 0.00 | 66 | 1010.4 |
| 20260505080551 | 60 | 143 | 2.6 | 7.8 | 0.00 | 0.00 | 0.00 | 66 | 1010.4 |
| 20260505080053 | 60 | 175 | 1.7 | 5.2 | 0.00 | 0.00 | 0.00 | 65 | 1010.4 |
| 20260505075550 | 60 | 167 | 0.9 | 4.3 | 0.00 | 0.00 | 0.00 | 65 | 1010.3 |
| 20260505075050 | 60 | 146 | 1.7 | 6.1 | 0.00 | 0.00 | 0.00 | 64 | 1010.3 |
| 20260505074549 | 60 | 165 | 2.6 | 7.8 | 0.00 | 0.00 | 0.00 | 65 | 1010.4 |
| 20260505073551 | 60 | 151 | 2.6 | 6.1 | 0.00 | 0.00 | 0.00 | 65 | 1010.3 |
| 20260505073054 | 60 | 93 | 2.6 | 6.1 | 0.00 | 0.00 | 0.00 | 65 | 1010.1 |
| 20260505072549 | 60 | 105 | 1.7 | 5.2 | 0.00 | 0.00 | 0.00 | 65 | 1010.1 |
| 20260505072048 | 60 | 65 | 2.6 | 7.0 | 0.00 | 0.00 | 0.00 | 65 | 1010.1 |
| 20260505071558 | 59 | 121 | 2.6 | 7.0 | 0.00 | 0.00 | 0.00 | 66 | 1010.1 |
| 20260505071049 | 58 | 146 | 1.7 | 5.2 | 0.00 | 0.00 | 0.00 | 69 | 1010.1 |
| 20260505070552 | 57 | 114 | 0.0 | 1.7 | 0.00 | 0.00 | 0.00 | 70 | 1010.1 |
| 20260505070048 | 58 | 139 | 0.0 | 1.7 | 0.00 | 0.00 | 0.00 | 69 | 1010.0 |
| 20260505065549 | 58 | 131 | 0.0 | 2.6 | 0.00 | 0.00 | 0.00 | 68 | 1010.0 |
| 20260505065046 | 59 | 126 | 0.9 | 2.6 | 0.00 | 0.00 | 0.00 | 67 | 1010.1 |
| 20260505064549 | 59 | 121 | 0.9 | 2.6 | 0.00 | 0.00 | 0.00 | 66 | 1010.1 |
| 20260505064047 | 60 | 120 | 0.0 | 3.5 | 0.00 | 0.00 | 0.00 | 65 | 1010.1 |
| 20260505063545 | 61 | 142 | 0.9 | 3.5 | 0.00 | 0.00 | 0.00 | 64 | 1010.1 |
| 20260505063045 | 61 | 134 | 0.9 | 5.2 | 0.00 | 0.00 | 0.00 | 63 | 1010.1 |
| 20260505062545 | 61 | 126 | 0.0 | 5.2 | 0.00 | 0.00 | 0.00 | 64 | 1010.2 |
| 20260505062047 | 62 | 128 | 1.7 | 6.1 | 0.00 | 0.00 | 0.00 | 62 | 1010.1 |
| 20260505061548 | 62 | 159 | 2.6 | 6.1 | 0.00 | 0.00 | 0.00 | 62 | 1010.1 |
| 20260505061044 | 61 | 122 | 0.9 | 4.3 | 0.00 | 0.00 | 0.00 | 62 | 1010.1 |
| 20260505060544 | 62 | 158 | 0.9 | 5.2 | 0.00 | 0.00 | 0.00 | 62 | 1010.1 |
| 20260505060050 | 62 | 143 | 1.7 | 7.8 | 0.00 | 0.00 | 0.00 | 62 | 1010.1 |
| 20260505055546 | 62 | 146 | 1.7 | 7.8 | 0.00 | 0.00 | 0.00 | 62 | 1010.2 |
| 20260505055042 | 61 | 193 | 0.9 | 5.2 | 0.00 | 0.00 | 0.00 | 64 | 1010.2 |
| 20260505054542 | 60 | 144 | 1.7 | 6.1 | 0.00 | 0.00 | 0.00 | 65 | 1010.2 |
| 20260505054042 | 59 | 155 | 2.6 | 6.1 | 0.00 | 0.00 | 0.00 | 68 | 1010.1 |
| 20260505053542 | 58 | 184 | 0.0 | 4.3 | 0.00 | 0.00 | 0.00 | 70 | 1010.1 |
| 20260505053041 | 58 | 153 | 0.0 | 0.9 | 0.00 | 0.00 | 0.00 | 72 | 1010.1 |
| 20260505052539 | 58 | 167 | 0.0 | 1.7 | 0.00 | 0.00 | 0.00 | 71 | 1010.1 |
| 20260505052038 | 59 | 165 | 0.0 | 2.6 | 0.00 | 0.00 | 0.00 | 69 | 1010.2 |
| 20260505051555 | 59 | 150 | 0.9 | 2.6 | 0.00 | 0.00 | 0.00 | 69 | 1010.2 |
| 20260505051040 | 60 | 169 | 0.0 | 2.6 | 0.00 | 0.00 | 0.00 | 68 | 1010.2 |
| 20260505050537 | 61 | 129 | 0.9 | 3.5 | 0.00 | 0.00 | 0.00 | 65 | 1010.2 |
| 20260505041529 | 61 | 121 | 0.0 | 3.5 | 0.00 | 0.00 | 0.00 | 65 | 1010.3 |
| 20260505041029 | 61 | 155 | 0.9 | 3.5 | 0.00 | 0.00 | 0.00 | 65 | 1010.3 |
| 20260505040529 | 61 | 161 | 0.0 | 3.5 | 0.00 | 0.00 | 0.00 | 65 | 1010.4 |
| 20260505040028 | 61 | 117 | 0.9 | 3.5 | 0.00 | 0.00 | 0.00 | 65 | 1010.5 |
| 20260505035529 | 61 | 103 | 0.0 | 1.7 | 0.00 | 0.00 | 0.00 | 65 | 1010.6 |
| 20260505035026 | 61 | 150 | 0.0 | 1.7 | 0.00 | 0.00 | 0.00 | 65 | 1010.5 |
| 20260505034526 | 61 | 146 | 0.9 | 1.7 | 0.00 | 0.00 | 0.00 | 64 | 1010.5 |
| 20260505034026 | 62 | 142 | 0.0 | 1.7 | 0.00 | 0.00 | 0.00 | 63 | 1010.5 |
| 20260505033526 | 62 | 145 | 0.0 | 2.6 | 0.00 | 0.00 | 0.00 | 62 | 1010.5 |
| 20260505033026 | 63 | 165 | 0.0 | 5.2 | 0.00 | 0.00 | 0.00 | 61 | 1010.5 |
| 20260505032526 | 63 | 159 | 1.7 | 5.2 | 0.00 | 0.00 | 0.00 | 60 | 1010.6 |
| 20260505032026 | 63 | 122 | 0.9 | 5.2 | 0.00 | 0.00 | 0.00 | 59 | 1010.7 |
| 20260505031526 | 64 | 158 | 1.7 | 5.2 | 0.00 | 0.00 | 0.00 | 58 | 1010.6 |
| 20260505031025 | 64 | 90 | 0.9 | 3.5 | 0.00 | 0.00 | 0.00 | 57 | 1010.6 |
| 20260505030525 | 65 | 159 | 0.0 | 5.2 | 0.00 | 0.00 | 0.00 | 56 | 1010.5 |
| 20260505030025 | 65 | 212 | 0.9 | 7.8 | 0.00 | 0.00 | 0.00 | 56 | 1010.6 |
| 20260505025525 | 65 | 159 | 3.5 | 7.8 | 0.00 | 0.00 | 0.00 | 56 | 1010.6 |
| 20260505025025 | 65 | 143 | 3.5 | 6.1 | 0.00 | 0.00 | 0.00 | 56 | 1010.7 |
| 20260505024524 | 65 | 173 | 0.9 | 5.2 | 0.00 | 0.00 | 0.00 | 57 | 1010.6 |
| 20260505024023 | 65 | 176 | 0.9 | 5.2 | 0.00 | 0.00 | 0.00 | 56 | 1010.5 |
| 20260505023523 | 65 | 212 | 1.7 | 8.7 | 0.00 | 0.00 | 0.00 | 56 | 1010.5 |
| 20260505023026 | 65 | 218 | 1.7 | 8.7 | 0.00 | 0.00 | 0.00 | 55 | 1010.7 |
| 20260505022523 | 65 | 193 | 1.7 | 6.1 | 0.00 | 0.00 | 0.00 | 55 | 1010.6 |
| 20260505022029 | 65 | 128 | 0.9 | 7.0 | 0.00 | 0.00 | 0.00 | 55 | 1010.6 |
| 20260505021528 | 66 | 126 | 2.6 | 7.0 | 0.00 | 0.00 | 0.00 | 54 | 1010.5 |
| 20260505021024 | 66 | 162 | 2.6 | 9.6 | 0.00 | 0.00 | 0.00 | 54 | 1010.5 |
| 20260505020523 | 66 | 145 | 3.5 | 9.6 | 0.00 | 0.00 | 0.00 | 54 | 1010.5 |
| 20260505020022 | 65 | 165 | 2.6 | 7.0 | 0.00 | 0.00 | 0.00 | 54 | 1010.6 |
| 20260505015522 | 66 | 172 | 0.0 | 7.0 | 0.00 | 0.00 | 0.00 | 53 | 1010.5 |
| 20260505015026 | 66 | 194 | 1.7 | 5.2 | 0.00 | 0.00 | 0.00 | 53 | 1010.5 |
| 20260505014521 | 66 | 209 | 1.7 | 7.8 | 0.00 | 0.00 | 0.00 | 53 | 1010.5 |
| 20260505014029 | 66 | 151 | 2.6 | 7.8 | 0.00 | 0.00 | 0.00 | 52 | 1010.4 |
| 20260505013522 | 66 | 250 | 1.7 | 5.2 | 0.00 | 0.00 | 0.00 | 52 | 1010.4 |
| 20260505013020 | 67 | 203 | 1.7 | 7.8 | 0.00 | 0.00 | 0.00 | 51 | 1010.4 |
| 20260505012520 | 67 | 101 | 2.6 | 6.1 | 0.00 | 0.00 | 0.00 | 51 | 1010.3 |
| 20260505012020 | 67 | 127 | 1.7 | 4.3 | 0.00 | 0.00 | 0.00 | 50 | 1010.1 |
| 20260505011524 | 67 | 200 | 1.7 | 3.5 | 0.00 | 0.00 | 0.00 | 49 | 1010.1 |
| 20260505011021 | 67 | 181 | 0.9 | 3.5 | 0.00 | 0.00 | 0.00 | 49 | 1010.0 |
| 20260505010520 | 68 | 186 | 1.7 | 5.2 | 0.00 | 0.00 | 0.00 | 49 | 1010.0 |
| 20260505010019 | 68 | 139 | 1.7 | 0.0 | 0.00 | 0.00 | 0.00 | 48 | 1009.8 |
| 20260505005520 | 68 | 106 | 0.9 | 6.1 | 0.00 | 0.00 | 0.00 | 48 | 1009.8 |
| 20260505005018 | 68 | 130 | 0.9 | 7.8 | 0.00 | 0.00 | 0.00 | 48 | 1009.9 |
| 20260505004523 | 69 | 179 | 2.6 | 7.8 | 0.00 | 0.00 | 0.00 | 47 | 1009.8 |
| 20260505004117 | 69 | 184 | 2.6 | 7.8 | 0.00 | 0.00 | 0.00 | 46 | 1009.7 |
| 20260505003517 | 70 | 175 | 0.9 | 12.2 | 0.00 | 0.00 | 0.00 | 46 | 1009.8 |
| 20260505003017 | 70 | 204 | 5.2 | 12.2 | 0.00 | 0.00 | 0.00 | 45 | 1009.8 |
| 20260505002517 | 70 | 144 | 1.7 | 7.8 | 0.00 | 0.00 | 0.00 | 45 | 1009.8 |
| 20260505002016 | 70 | 174 | 3.5 | 7.8 | 0.00 | 0.00 | 0.00 | 45 | 1009.7 |
| 20260505001517 | 70 | 158 | 3.5 | 11.3 | 0.00 | 0.00 | 0.00 | 45 | 1009.6 |
| 20260505001018 | 70 | 96 | 3.5 | 9.6 | 0.00 | 0.00 | 0.00 | 44 | 1009.6 |
| 20260505000515 | 70 | 213 | 5.2 | 9.6 | 0.00 | 0.00 | 0.00 | 44 | 1009.6 |
| 20260505000023 | 70 | 151 | 2.6 | 8.7 | 0.00 | 0.00 | 0.00 | 44 | 1009.7 |
| 20260504235515 | 70 | 172 | 1.7 | 8.7 | 0.00 | 0.00 | 0.00 | 44 | 1009.5 |
| 20260504235014 | 70 | 164 | 0.9 | 7.0 | 0.00 | 0.00 | 0.00 | 44 | 1009.5 |
| 20260504234513 | 71 | 140 | 2.6 | 7.8 | 0.00 | 0.00 | 0.00 | 43 | 1009.4 |
| 20260504234013 | 71 | 220 | 1.7 | 8.7 | 0.00 | 0.00 | 0.00 | 43 | 1009.5 |
| 20260504233513 | 71 | 153 | 0.9 | 9.6 | 0.00 | 0.00 | 0.00 | 43 | 1009.3 |
| 20260504233014 | 71 | 160 | 3.5 | 9.6 | 0.00 | 0.00 | 0.00 | 42 | 1009.4 |
| 20260504232513 | 71 | 63 | 2.6 | 10.4 | 0.00 | 0.00 | 0.00 | 42 | 1009.3 |
| 20260504232015 | 71 | 158 | 2.6 | 12.2 | 0.00 | 0.00 | 0.00 | 41 | 1009.2 |
| 20260504231513 | 71 | 86 | 4.3 | 12.2 | 0.00 | 0.00 | 0.00 | 41 | 1009.3 |
| 20260504231012 | 72 | 37 | 0.9 | 8.7 | 0.00 | 0.00 | 0.00 | 41 | 1009.2 |
| 20260504230512 | 72 | 147 | 0.9 | 7.8 | 0.00 | 0.00 | 0.00 | 40 | 1009.3 |
| 20260504230014 | 72 | 102 | 2.6 | 11.3 | 0.00 | 0.00 | 0.00 | 41 | 1009.2 |
| 20260504225511 | 72 | 92 | 2.6 | 11.3 | 0.00 | 0.00 | 0.00 | 40 | 1009.2 |
| 20260504225017 | 73 | 191 | 2.6 | 12.2 | 0.00 | 0.00 | 0.00 | 39 | 1009.1 |
| 20260504224510 | 73 | 86 | 4.3 | 12.2 | 0.00 | 0.00 | 0.00 | 38 | 1009.1 |
| 20260504224010 | 73 | 78 | 4.3 | 7.8 | 0.00 | 0.00 | 0.00 | 38 | 1009.1 |
| 20260504223511 | 74 | 178 | 1.7 | 10.4 | 0.00 | 0.00 | 0.00 | 38 | 1009.0 |
| 20260504223010 | 74 | 88 | 4.3 | 10.4 | 0.00 | 0.00 | 0.00 | 37 | 1009.0 |
| 20260504222509 | 75 | 200 | 3.5 | 9.6 | 0.00 | 0.00 | 0.00 | 37 | 1009.0 |
| 20260504222012 | 76 | 111 | 1.7 | 13.9 | 0.00 | 0.00 | 0.00 | 36 | 1008.9 |
| 20260504221508 | 76 | 79 | 3.5 | 13.9 | 0.00 | 0.00 | 0.00 | 35 | 1008.7 |
| 20260504221009 | 76 | 224 | 2.6 | 10.4 | 0.00 | 0.00 | 0.00 | 35 | 1008.8 |
| 20260504220511 | 76 | 142 | 1.7 | 8.7 | 0.00 | 0.00 | 0.00 | 35 | 1008.8 |
| 20260504220009 | 77 | 135 | 3.5 | 10.4 | 0.00 | 0.00 | 0.00 | 34 | 1008.8 |
| 20260504215508 | 77 | 118 | 0.9 | 8.7 | 0.00 | 0.00 | 0.00 | 33 | 1008.8 |
| 20260504215007 | 77 | 177 | 5.2 | 8.7 | 0.00 | 0.00 | 0.00 | 33 | 1008.8 |
| 20260504214517 | 76 | 97 | 3.5 | 10.4 | 0.00 | 0.00 | 0.00 | 35 | 1008.8 |
| 20260504214014 | 77 | 103 | 4.3 | 9.6 | 0.00 | 0.00 | 0.00 | 34 | 1008.7 |
| 20260504213506 | 76 | 87 | 5.2 | 9.6 | 0.00 | 0.00 | 0.00 | 35 | 1008.8 |
| 20260504213006 | 76 | 180 | 2.6 | 9.6 | 0.00 | 0.00 | 0.00 | 35 | 1008.7 |
| 20260504212506 | 76 | 129 | 3.5 | 9.6 | 0.00 | 0.00 | 0.00 | 33 | 1008.7 |
| 20260504212006 | 76 | 53 | 3.5 | 6.1 | 0.00 | 0.00 | 0.00 | 34 | 1008.6 |
| 20260504211507 | 75 | 254 | 1.7 | 7.0 | 0.00 | 0.00 | 0.00 | 36 | 1008.7 |
| 20260504211004 | 74 | 214 | 0.9 | 9.6 | 0.00 | 0.00 | 0.00 | 35 | 1008.8 |
| 20260504210504 | 74 | 122 | 3.5 | 10.4 | 0.00 | 0.00 | 0.00 | 35 | 1008.8 |
| 20260504210003 | 73 | 159 | 2.6 | 10.4 | 0.00 | 0.00 | 0.00 | 35 | 1008.9 |
| 20260504205503 | 74 | 1 | 2.6 | 8.7 | 0.00 | 0.00 | 0.00 | 35 | 1008.8 |
| 20260504205002 | 74 | 227 | 1.7 | 7.8 | 0.00 | 0.00 | 0.00 | 35 | 1008.9 |
| 20260504204503 | 74 | 168 | 1.7 | 7.0 | 0.00 | 0.00 | 0.00 | 35 | 1009.0 |
| 20260504204002 | 74 | 328 | 3.5 | 9.6 | 0.00 | 0.00 | 0.00 | 34 | 1008.9 |
| 20260504203505 | 74 | 131 | 3.5 | 9.6 | 0.00 | 0.00 | 0.00 | 34 | 1008.9 |
| 20260504203002 | 75 | 96 | 4.3 | 10.4 | 0.00 | 0.00 | 0.00 | 34 | 1009.0 |
| 20260504202501 | 75 | 25 | 3.5 | 10.4 | 0.00 | 0.00 | 0.00 | 33 | 1008.9 |
| 20260504202001 | 75 | 126 | 3.5 | 14.8 | 0.00 | 0.00 | 0.00 | 35 | 1009.0 |
| 20260504201630 | 75 | 83 | 3.5 | 14.8 | 0.00 | 0.00 | 0.00 | 33 | 1009.1 |
| 20260504201100 | 75 | 37 | 5.2 | 12.2 | 0.00 | 0.00 | 0.00 | 32 | 1009.1 |
| 20260504200559 | 75 | 193 | 3.5 | 10.4 | 0.00 | 0.00 | 0.00 | 34 | 1009.2 |
| 20260504200107 | 75 | 139 | 4.3 | 10.4 | 0.00 | 0.00 | 0.00 | 32 | 1009.3 |
| 20260504195558 | 75 | 90 | 3.5 | 13.0 | 0.00 | 0.00 | 0.00 | 33 | 1009.3 |
| 20260504195057 | 76 | 191 | 1.7 | 13.0 | 0.00 | 0.00 | 0.00 | 32 | 1009.4 |
| 20260504194604 | 76 | 99 | 3.5 | 11.3 | 0.00 | 0.00 | 0.00 | 32 | 1009.4 |
| 20260504194056 | 76 | 240 | 1.7 | 11.3 | 0.00 | 0.00 | 0.00 | 33 | 1009.5 |
| 20260504193556 | 77 | 175 | 4.3 | 11.3 | 0.00 | 0.00 | 0.00 | 32 | 1009.6 |
| 20260504193059 | 76 | 136 | 1.7 | 11.3 | 0.00 | 0.00 | 0.00 | 30 | 1009.7 |
| 20260504192553 | 76 | 157 | 2.6 | 9.6 | 0.00 | 0.00 | 0.00 | 32 | 1009.8 |
| 20260504192100 | 76 | 141 | 3.5 | 9.6 | 0.00 | 0.00 | 0.00 | 31 | 1010.0 |
| 20260504191600 | 76 | 140 | 2.6 | 7.8 | 0.00 | 0.00 | 0.00 | 31 | 1010.0 |
| 20260504191052 | 76 | 111 | 0.9 | 6.1 | 0.00 | 0.00 | 0.00 | 35 | 1010.1 |
| 20260504190550 | 75 | 120 | 0.9 | 16.5 | 0.00 | 0.00 | 0.00 | 32 | 1010.1 |
| 20260504190107 | 75 | 124 | 2.6 | 16.5 | 0.00 | 0.00 | 0.00 | 34 | 1010.2 |
| 20260504185551 | 75 | 134 | 2.6 | 11.3 | 0.00 | 0.00 | 0.00 | 34 | 1010.2 |
| 20260504185048 | 74 | 47 | 4.3 | 10.4 | 0.00 | 0.00 | 0.00 | 34 | 1010.3 |
| 20260504184603 | 74 | 46 | 3.5 | 11.3 | 0.00 | 0.00 | 0.00 | 34 | 1010.4 |
| 20260504184046 | 74 | 73 | 3.5 | 11.3 | 0.00 | 0.00 | 0.00 | 35 | 1010.6 |
| 20260504183546 | 74 | 217 | 2.6 | 9.6 | 0.00 | 0.00 | 0.00 | 35 | 1010.6 |
| 20260504183045 | 74 | 199 | 3.5 | 12.2 | 0.00 | 0.00 | 0.00 | 33 | 1010.7 |
| 20260504182543 | 73 | 26 | 0.9 | 12.2 | 0.00 | 0.00 | 0.00 | 37 | 1010.8 |
| 20260504182043 | 73 | 360 | 4.3 | 11.3 | 0.00 | 0.00 | 0.00 | 36 | 1010.9 |
| 20260504181547 | 74 | 351 | 2.6 | 10.4 | 0.00 | 0.00 | 0.00 | 34 | 1011.0 |
| 20260504181042 | 73 | 134 | 1.7 | 9.6 | 0.00 | 0.00 | 0.00 | 38 | 1011.1 |
| 20260504180541 | 73 | 216 | 5.2 | 10.4 | 0.00 | 0.00 | 0.00 | 34 | 1011.1 |
| 20260504180042 | 73 | 125 | 3.5 | 10.4 | 0.00 | 0.00 | 0.00 | 35 | 1011.1 |
| 20260504175538 | 73 | 147 | 2.6 | 8.7 | 0.00 | 0.00 | 0.00 | 35 | 1011.3 |
| 20260504175037 | 72 | 149 | 1.7 | 9.6 | 0.00 | 0.00 | 0.00 | 37 | 1011.4 |
| 20260504174539 | 72 | 162 | 4.3 | 9.6 | 0.00 | 0.00 | 0.00 | 35 | 1011.4 |
| 20260504174037 | 73 | 124 | 3.5 | 8.7 | 0.00 | 0.00 | 0.00 | 36 | 1011.5 |
| 20260504173541 | 72 | 127 | 3.5 | 8.7 | 0.00 | 0.00 | 0.00 | 34 | 1011.5 |
| 20260504173036 | 72 | 203 | 1.7 | 10.4 | 0.00 | 0.00 | 0.00 | 35 | 1011.7 |
| 20260504172534 | 72 | 207 | 2.6 | 9.6 | 0.00 | 0.00 | 0.00 | 36 | 1011.7 |
| 20260504172034 | 72 | 137 | 2.6 | 9.6 | 0.00 | 0.00 | 0.00 | 35 | 1011.9 |